STARLINK-32661, 62899

Orbit data source: Space-Track

STARLINK-32661, 62899 is a payload satellite owned by SpaceX/Seattle (US) in LEO that was launched on Tue, 04 Feb 2025 UTC via an FALCON 9 launch vehicle from the Air Force Eastern Test Range (AFETR). Payload-class satellites include a variety of spacecraft equipped with specific instruments for various scientific and technological missions. These include communications satellites like Starlink; space stations such as the ISS; scientific satellites like the Hubble; Earth observation satellites from companies like Planet Labs, Umbra, and HawkEye 360; GPS; miniature CubeSats for education and research; and military/defense satellites.

Loading next visibility...
Identifier
62899, 2025-024W
Orbit
LEO
Country
Flag of USUS
Related business
Manufacturer
SpaceX/Seattle
Mission
Operational Commercial Communications
Bus & Motor
STARLINK V2M, Unknown motor
Mass
730 kg wet, ~700 kg dry
Launch date (UTC)
2025-02-04 (11 months ago)
Launch vehicle
FALCON 9
Launch site
Air Force Eastern Test Range (AFETR)
Object type
Payload
Rocket body
Debris
Shape & HBR
Box + 2 Pan, 17.7 m
Radar Cross Section
33.884 m², Large (>1 m²)

Expand to show TLE details & history
Last TLE update: 19 hours ago

TLE from 19 hours ago
0 STARLINK-32661
1 62899U 25024W   25354.16043224  .00018877  00000-0  69353-3 0  9998
2 62899  43.0007  54.4412 0000870 257.7964 102.2791 15.27590474 50107
Epoch: 2025-12-20T03:51Z
TLE epoch observation values (Epoch: 2025-12-20T03:51:01.345Z)
Latitude
0.00003°
Longitude
-92.30559°
Altitude
482.92 km
Speed
7.626 km/s
True Right ascension
03h 37m 45s
True Declination
0° 00' 00"
Sunlit
Object was in full shadow at epoch
Visualization orbit readout
Latitude
Unknown
Longitude
Unknown
Altitude
Unknown
Speed
Unknown
Apparent Right ascension
Unknown
Apparent Declination
Unknown
Sunlit
N/A
Visualization observer readout
Local Sidereal Time
22:00:06
Azimuth
Unknown
Elevation
Unknown
Doppler factor
Unknown
Orbital elements
Apogee altitude
485.56 km
Perigee altitude
484.366 km
Semi-major axis
6,863.1 km
Eccentricity
0.00009
Inclination
43.0007°
RAAN
54.4412°
Arg. of periapsis
257.7964°
True anomaly
102.28884°
Mean anomaly
102.2791°
Eccentric anomaly
102.28397°
Mean motion
3.81736 °/min
Orbital period
94.31 mins
BSTAR
0.00069353
Loading maneuver chart data...
Computing Atmospheric mass density...
Loading historical data...
Loading historical data...
Loading historical data...
Loading historical data...
Loading historical data...
Loading historical data...
Loading historical data...

Documentation

Showing up to 5 results
|